Pompano Beach, FL

5:02 AM EDT on March 29, 2017 (GMT -0400)
Pompano Beach

Weather History for KPMP - November, 2014

Change the Weather History Date:

Monday, November 24, 2014

  Actual Average Record
Temperature  
Mean Temperature 81 °F -  
Max Temperature 84 °F 80 °F 89 °F (1948)
Min Temperature 78 °F 65 °F 45 °F (1975)
Cooling Degree Days 16    
Growing Degree Days 31 (Base 50)    
Moisture  
Dew Point 76 °F    
Average Humidity 84    
Maximum Humidity 90    
Minimum Humidity 69    
Precipitation  
Precipitation 0.00 in - - ()
Sea Level Pressure  
Sea Level Pressure 29.98 in    
Wind  
Wind Speed 10 mph (SSE)    
Max Wind Speed 16 mph    
Max Gust Speed 23 mph    
Visibility 8 miles    
Events Rain    
Averages and records for this station are not official NWS values.
T = Trace of Precipitation, MM = Missing Value Source: NWS Daily Summary

Daily Weather History Graph

Daily Weather History Graph

Search for Another Location

Airport or City:

Trip Planner

Search our weather history database for the weather conditions in past years. The results will help you decide how hot, cold, wet, or windy it might be!

Date:

Astronomy

Nov. 24, 2014 Rise Set
Actual Time 6:45 AM EST 5:28 PM EST
Civil Twilight 6:21 AM EST 5:53 PM EST
Nautical Twilight 5:52 AM EST 6:21 PM EST
Astronomical Twilight 5:24 AM EST 6:49 PM EST
Moon 8:38 AM EST (11/24) 7:46 PM EST (11/24)
Length of Visible Light 11h 32m
Length of Day
10h 42m
Waxing Crescent, 6% of the Moon is Illuminated
Nov 24
Waxing Crescent
Nov 29
First Quarter
Dec 6
Full
Dec 14
Last Quarter
Dec 21
New

Hourly Weather History & Observations

Time (EST) Temp. Heat Index Dew Point Humidity Pressure Visibility Wind Dir Wind Speed Gust Speed Precip Events Conditions
12:53 AM 80.1 °F 84.5 °F 73.9 °F 81% 29.95 in 8.0 mi SSE 12.7 mph - N/A   Partly Cloudy
1:53 AM 80.1 °F 85.1 °F 75.0 °F 85% 29.96 in 7.0 mi SSE 11.5 mph - 0.00 in Rain Light Rain
2:44 AM 80.1 °F 85.1 °F 75.0 °F 85% 29.94 in 7.0 mi South 10.4 mph - 0.00 in Rain Light Rain
2:53 AM 80.1 °F 85.1 °F 75.0 °F 85% 29.95 in 8.0 mi South 9.2 mph - 0.00 in   Mostly Cloudy
3:06 AM 80.1 °F 85.1 °F 75.0 °F 85% 29.94 in 8.0 mi South 8.1 mph - N/A   Mostly Cloudy
3:21 AM 80.1 °F 85.1 °F 75.0 °F 85% 29.94 in 8.0 mi SSE 11.5 mph - N/A   Mostly Cloudy
3:28 AM 79.0 °F - 75.0 °F 88% 29.94 in 8.0 mi SSE 6.9 mph - N/A   Mostly Cloudy
3:35 AM 79.0 °F - 75.0 °F 88% 29.94 in 7.0 mi South 9.2 mph - N/A   Mostly Cloudy
3:44 AM 79.0 °F - 75.0 °F 88% 29.94 in 7.0 mi South 11.5 mph - N/A   Mostly Cloudy
3:53 AM 79.0 °F - 75.0 °F 88% 29.94 in 7.0 mi South 12.7 mph - N/A   Mostly Cloudy
4:00 AM 79.0 °F - 75.0 °F 88% 29.94 in 8.0 mi South 10.4 mph - N/A   Scattered Clouds
4:06 AM 79.0 °F - 75.0 °F 88% 29.94 in 8.0 mi South 6.9 mph - N/A   Mostly Cloudy
4:17 AM 79.0 °F - 75.0 °F 88% 29.94 in 8.0 mi South 8.1 mph - N/A   Scattered Clouds
4:53 AM 79.0 °F - 75.0 °F 88% 29.95 in 8.0 mi South 10.4 mph - N/A   Scattered Clouds
5:53 AM 79.0 °F - 75.0 °F 88% 29.97 in 7.0 mi South 4.6 mph - N/A   Partly Cloudy
6:53 AM 78.1 °F - 75.0 °F 90% 29.99 in 7.0 mi South 5.8 mph - N/A   Partly Cloudy
7:53 AM 79.0 °F - 75.9 °F 90% 30.01 in 8.0 mi South 4.6 mph - N/A   Scattered Clouds
8:53 AM 81.0 °F 87.3 °F 75.9 °F 85% 30.02 in 8.0 mi South 8.1 mph - N/A   Clear
9:53 AM 84.0 °F 93.7 °F 77.0 °F 79% 30.03 in 8.0 mi SSE 13.8 mph - N/A   Mostly Cloudy
10:53 AM 84.9 °F 95.3 °F 77.0 °F 77% 30.02 in 7.0 mi SE 11.5 mph - N/A   Scattered Clouds
11:53 AM 84.9 °F 95.3 °F 77.0 °F 77% 30.00 in 8.0 mi SSE 15.0 mph - N/A   Partly Cloudy
12:53 PM 84.9 °F 94.1 °F 75.9 °F 74% 29.97 in 8.0 mi SSE 13.8 mph 23.0 mph N/A   Clear
1:53 PM 84.9 °F 94.1 °F 75.9 °F 74% 29.95 in 8.0 mi SSE 16.1 mph - N/A   Scattered Clouds
2:53 PM 84.9 °F 92.1 °F 73.9 °F 69% 29.95 in 10.0 mi SSE 15.0 mph 20.7 mph N/A   Scattered Clouds
3:53 PM 84.0 °F 91.9 °F 75.0 °F 74% 29.96 in 9.0 mi SE 12.7 mph - N/A   Clear
4:53 PM 82.9 °F 90.2 °F 75.0 °F 77% 29.98 in 9.0 mi SSE 10.4 mph - N/A   Clear
5:53 PM 81.0 °F 87.3 °F 75.9 °F 85% 29.99 in 9.0 mi SSE 8.1 mph - N/A   Clear
6:53 PM 81.0 °F 87.3 °F 75.9 °F 85% 30.01 in 8.0 mi SSE 9.2 mph - N/A   Clear
7:53 PM 80.1 °F 85.8 °F 77.0 °F 90% 30.02 in 7.0 mi SSE 8.1 mph - N/A   Clear
8:53 PM 80.1 °F 85.8 °F 77.0 °F 90% 30.04 in 7.0 mi SSE 5.8 mph - N/A   Partly Cloudy
9:24 PM 80.1 °F 85.8 °F 77.0 °F 90% 30.04 in 8.0 mi SSE 4.6 mph - N/A   Partly Cloudy
9:49 PM 80.6 °F 87.1 °F 77.0 °F 89% 30.05 in 7.0 mi SSE 6.9 mph - N/A   Mostly Cloudy
9:53 PM 80.1 °F 85.8 °F 77.0 °F 90% 30.05 in 7.0 mi SSE 8.1 mph - N/A   Scattered Clouds
10:53 PM 80.1 °F 85.4 °F 75.9 °F 87% 30.05 in 8.0 mi SSE 8.1 mph - N/A   Partly Cloudy
11:53 PM 80.1 °F 85.4 °F 75.9 °F 87% 30.05 in 8.0 mi SSE 8.1 mph - N/A   Clear